Regional Weather Roundup
Issued by NWS

Home | Current Version | Previous Version | Text Only | Print | Product List | Glossary Off
Versions: 1 2 3 4 5 6 7 8 9 10 11 12 13 14 15 16 17 18 19 20 21 22 23 24 25 26 27 28 29 30 31 32 33 34 35 36 37 38 39 40 41 42 43 44 45 46 47 48 49 50

000
ASUS43 KMPX 011401
RWRMN
WEATHER ROUNDUP FOR MINNESOTA
NATIONAL WEATHER SERVICE TWIN CITIES/CHANHASSEN MN
900 AM CDT SUN MAY 01 2016


NOTE: "FAIR" INDICATES FEW OR NO CLOUDS BELOW 12,000 FEET WITH NO
SIGNIFICANT WEATHER AND/OR OBSTRUCTIONS TO VISIBILITY. N/A MEANS
CURRENT SKY AND/OR WEATHER CONDITIONS ARE NOT AVAILABLE.

MNZ060>063-068>070-011500-
   Twin Cities Metro

CITY           SKY/WX    TMP DP  RH WIND       PRES   REMARKS
TWIN CITIES    PTSUNNY   46  34  62 NE14G20   30.17R
ST PAUL        SUNNY     46  36  68 NE10      30.18S
CRYSTAL        SUNNY     46  35  65 N13       30.17S
BLAINE         MOSUNNY   46  37  71 N13       30.18R
EDEN PRAIRIE   SUNNY     46  34  62 NE10      30.15R
SOUTH ST PAUL  CLOUDY    46  34  62 N12       30.16S
LAKE ELMO      FAIR      45  36  70 N12       30.18R
$$
MNZ001>005-007-008-013>017-022>024-027-028-011500-
   Northwest Minnesota

CITY           SKY/WX    TMP DP  RH WIND       PRES   REMARKS
BEMIDJI        SUNNY     46  29  51 CALM      30.29S
HALLOCK        SUNNY     52  28  40 CALM      30.31F
ROSEAU         SUNNY     46  37  71 CALM      30.31S
WARROAD        SUNNY     45  37  76 CALM      30.32S
THIEF RVR FALL SUNNY     46  28  49 W6        30.32S
CROOKSTON      SUNNY     46  32  57 W6        30.32S
FOSSTON        SUNNY     46  28  49 CALM      30.31R
DETROIT LAKES  SUNNY     46  32  57 E6        30.29S
MOORHEAD       SUNNY     46  28  49 N6        30.31S
PARK RAPIDS    SUNNY     47  28  47 NE8       30.27F
MAHNOMEN       FAIR      44  31  59 CALM      30.30R
$$
MNZ006-009>011-018-025>026-011500-
   North Central Minnesota

CITY           SKY/WX    TMP DP  RH WIND       PRES   REMARKS
BAUDETTE       SUNNY     46  30  53 E3        30.31S
FLAG ISLAND    SUNNY     43  34  70 CALM      30.31S
INTL FALLS     SUNNY     46  31  55 NE5       30.31S
WASKISH        SUNNY     46  36  66 W6        30.30S
BIG FORK       SUNNY     46  30  53 N5        30.29S
LONGVILLE      SUNNY     46  28  49 N7        30.26F
GRAND RAPIDS   SUNNY     43  28  56 N8        30.28S
CRANE LAKE     SUNNY     39  30  70 CALM      30.32S
ORR            SUNNY     43  27  52 CALM      30.26F
COOK           SUNNY     43  30  61 CALM      30.28F
WALKER         FAIR      43  29  57 NE5       30.28F
$$
MNZ012-019>021-037-011500-
   Northeast Minnesota

CITY           SKY/WX    TMP DP  RH WIND       PRES   REMARKS
DULUTH         PTSUNNY   41  33  73 E13       30.25R
ELY            SUNNY     39  30  70 N3        30.27S
HIBBING        SUNNY     42  31  64 VRB3      30.27S
EVELETH        SUNNY     43  32  65 N7        30.27S
DULUTH HARBOR  CLOUDY    43  36  75 NE13      30.28R
TWO HARBORS    CLOUDY    46  37  71 E12       30.24S
SILVER BAY     CLOUDY    46  36  66 NE14      30.25R
GRAND MARAIS     N/A     43  34  70 E8        30.26S
G MARAIS ARPRT SUNNY     43  30  61 NE8       30.24S
$$
MNZ029>031-032-039>041-046>048-054>057-064-011500-
   West Central Minnesota

CITY           SKY/WX    TMP DP  RH WIND       PRES   REMARKS
FERGUS FALLS   SUNNY     46  30  53 E8        30.27R
WHEATON        SUNNY     48  34  57 NE10G16   30.29R
MORRIS         SUNNY     46  34  61 NE15G21   30.23S
ALEXANDRIA     SUNNY     44  31  60 NE14      30.25S
ELBOW LAKE     FAIR      43  31  63 NE9G16    30.27R
WADENA         SUNNY     43  30  61 NE9       30.26S
GLENWOOD       SUNNY     43  34  70 NE16      30.23S
APPLETON       SUNNY     46  34  61 NE14      30.22S
BENSON         SUNNY     46  34  61 E16G22    30.22S
ORTONVILLE     SUNNY     45  32  61 NE15      30.23S
MADISON        SUNNY     45  34  65 NE15      30.22R
WILLMAR        FAIR      45  36  70 NE16      30.21R
$$
MNZ033>034-036-042>043-049>051-058-059-011500-
   Central Minnesota

CITY           SKY/WX    TMP DP  RH WIND       PRES   REMARKS
ST CLOUD       SUNNY     45  33  63 NE12G21   30.21S
SAUK CENTRE    FAIR      43  33  68 NE10G17   30.23S
PAYNESVILLE    SUNNY     44  34  68 NE14G21   30.21S
AITKIN         SUNNY     46  28  49 NE10      30.24F
PINE RIVER     SUNNY     45  34  65 NE7       30.29S
BRAINERD       SUNNY     44  31  60 NE13G18   30.26S
STAPLES        SUNNY     43  30  61 NE7       30.26S
LONG PRAIRIE   FAIR      41  32  70 N14       30.24S
LITTLE FALLS   SUNNY     43  32  65 N6        30.24R
LITCHFIELD     SUNNY     45  36  70 NE13G18   30.20R
BUFFALO        SUNNY     43  34  71 NE12G17   30.20S
MAPLE LAKE     SUNNY     42  36  79 NE9       30.21R
HUTCHINSON     SUNNY     43  35  74 NE15G22   30.19R
$$
MNZ037-044-045-052-053-011500-
   East Central Minnesota

CITY           SKY/WX    TMP DP  RH WIND       PRES   REMARKS
PRINCETON      CLOUDY    45  36  70 NE10      30.22R
MORA           SUNNY     45  34  65 NE9G22    30.24R
CAMBRIDGE      MOSUNNY   46  34  61 N8        30.19S
RUSH CITY      SUNNY     45  35  70 NE12      30.21S
MOOSE LAKE     SUNNY     43  32  65 NE12G18   30.23S
HINCKLEY       FAIR      45  34  65 NE16G22   30.22S
CLOQUET        CLOUDY    43  32  65 NE10      30.25S
MCGREGOR       SUNNY     43  32  65 NE9       30.26S
$$
MNZ071>073-080-081-089-090-097-098-011500-
   Southwest Minnesota

CITY           SKY/WX    TMP DP  RH WIND       PRES   REMARKS
MONTEVIDEO     SUNNY     45  34  65 E16       30.22S
GRANITE FALLS  CLOUDY    44  35  70 N13G18    30.21S
CANBY          SUNNY     45  35  69 NE10      30.23R
MARSHALL       MOSUNNY   41  33  73 NE12      30.20R
REDWOOD FALLS  CLOUDY    45  33  63 NE8G17    30.18R
OLIVIA         CLOUDY    43  32  65 NE14G20   30.18R
WINDOM         CLOUDY    43  37  81 N16       30.14S
WORTHINGTON    CLOUDY    39  35  86 N16       30.14R
JACKSON        CLOUDY    41  36  81 N15       30.12S
TRACY          MOSUNNY   41  36  80 N13       30.18R
SLAYTON        CLOUDY    37  35  92 N13       30.16R
$$
MNZ065>067-074>077-082>085-091>093-011500-
   South Central Minnesota

CITY           SKY/WX    TMP DP  RH WIND       PRES   REMARKS
MANKATO        CLOUDY    43  36  75 N14       30.13S
NEW ULM        CLOUDY    43  36  75 NE12      30.15S
ST JAMES       CLOUDY    37  34  87 N13       30.15S
FAIRMONT       CLOUDY    41  34  75 N13       30.11S
GLENCOE        SUNNY     45  37  75 NE8G16    30.17R
FARIBAULT      CLOUDY    45  37  76 N2        30.14R
OWATONNA       CLOUDY    45  36  70 N13       30.12R
WASECA         CLOUDY    43  36  75 NE14G20   30.12S
ALBERT LEA     CLOUDY    45  39  81 N9        30.09S
$$
MNZ078>079-086>088-094>096-011500-
   Southeast Minnesota

CITY           SKY/WX    TMP DP  RH WIND       PRES   REMARKS
ROCHESTER      CLOUDY    44  39  82 NE15      30.10R
RED WING       CLOUDY    46  34  61 NE6       30.13S
STANTON        CLOUDY    47  37  69 NE14      30.13S
DODGE CENTER   CLOUDY    41  41 100 NE14      30.10S
WINONA         CLOUDY    46  36  66 NE3       30.13R
AUSTIN         CLOUDY    45  37  76 NE10G20   30.08S
PRESTON        CLOUDY    43  37  79 NE15      30.08S
$$
ABBREVIATIONS USED IN REMARKS
   TC - TEMPERATURES IN CELSIUS
  WCI - WIND CHILL INDEX
   HX - HEAT INDEX
  VSB - VISIBILITY
$$



USA.gov is the U.S. government's official web portal to all federal, state and local government web resources and services.